This is the latest recevied weather packets stored in our database for station/object N5DGC. If no packets are shown the sender has not sent any weather packets the latest 10 day(s).
| Time | Temp. | Humidity | Pressure | Rain* | Wind** | Luminosity | Snow |
|---|---|---|---|---|---|---|---|
| 1777584653 | 25.56° C | 11% | 1229.7 hPa | 0 mm | - | 768 W/m² | - |
| 1777584349 | 26.11° C | 11% | 1229.4 hPa | 0 mm | - | 831 W/m² | - |
| 1777584045 | 26.67° C | 11% | 1229.8 hPa | 0 mm | - | 804 W/m² | - |
| 1777583740 | 26.11° C | 12% | 1229.8 hPa | 0 mm | - | 738 W/m² | - |
| 1777583439 | 25.56° C | 12% | 1230 hPa | 0 mm | - | 854 W/m² | - |
| 1777583139 | 26.11° C | 11% | 1230.1 hPa | 0 mm | - | 873 W/m² | - |
| 1777582835 | 25.56° C | 12% | 1230.3 hPa | 0 mm | - | 862 W/m² | - |
| 1777582532 | 26.11° C | 11% | 1230 hPa | 0 mm | - | 896 W/m² | - |
| 1777582227 | 26.11° C | 12% | 1230.4 hPa | 0 mm | - | 938 W/m² | - |
| 1777581925 | 26.11° C | 12% | 1230.5 hPa | 0 mm | - | 777 W/m² | - |
| 1777581620 | 26.11° C | 12% | 1230.5 hPa | 0 mm | - | 1000 W/m² | - |
| 1777581315 | 26.11° C | 12% | 1230.5 hPa | 0 mm | - | 1040 W/m² | - |
| 1777581010 | 26.11° C | 12% | 1230.7 hPa | 0 mm | - | 1037 W/m² | - |
| 1777580709 | 25.56° C | 11% | 1230.7 hPa | 0 mm | - | 1104 W/m² | - |
| 1777580405 | 25.56° C | 12% | 1230.8 hPa | 0 mm | - | 1030 W/m² | - |
| 1777580101 | 23.89° C | 13% | 1230.8 hPa | 0 mm | - | 1038 W/m² | - |
| 1777579798 | 24.44° C | 13% | 1230.8 hPa | 0 mm | - | 1088 W/m² | - |
| 1777579496 | 24.44° C | 13% | 1231.1 hPa | 0 mm | - | 787 W/m² | - |
| 1777579191 | 23.89° C | 14% | 1230.7 hPa | 0 mm | - | 952 W/m² | - |
| 1777578886 | 23.89° C | 14% | 1231.1 hPa | 0 mm | - | 957 W/m² | - |
| 1777578583 | 23.33° C | 15% | 1231.2 hPa | 0 mm | - | 966 W/m² | - |
| 1777578277 | 22.78° C | 16% | 1231.1 hPa | 0 mm | - | 987 W/m² | - |
| 1777577973 | 22.78° C | 15% | 1231.4 hPa | 0 mm | - | 154 W/m² | - |
| 1777577668 | 23.89° C | 14% | 1231.3 hPa | 0 mm | - | 207 W/m² | - |
| 1777577366 | 24.44° C | 14% | 1231.4 hPa | 0 mm | - | 1021 W/m² | - |
* Rain latest hour (hover to see other rain measurements)
** Current wind speed in m/s (hover to see current wind gust speed)